Preview of NWS' New Version of Forecast
This preview is not operational and should not be used for support decisions.

Regional Weather Roundup (RWR)

Issued by National Weather Service (NWS)

                            
000
ASUS42 KTBW 161118
RWRFL 
FLORIDA REGIONAL WEATHER ROUNDUP
NATIONAL WEATHER SERVICE TAMPA BAY RUSKIN FL
700 AM EDT MON SEP 16 2019

NOTE: "FAIR" INDICATES FEW OR NO CLOUDS BELOW 12,000 FEET WITH NO
SIGNIFICANT WEATHER AND/OR OBSTRUCTIONS TO VISIBILITY.

FLZ001>010-012>015-112-114-115-161200-
PANHANDLE FLORIDA
  
CITY           SKY/WX    TMP DP  RH WIND       PRES   REMARKS
PENSACOLA      FAIR      79  70  74 NE5       30.01R                  
PENSACOLA NAS  MOCLDY    77  72  84 N3        30.01R                  
MILTON NAS     MOCLDY    72  68  87 VRB3      30.03R                  
CRESTVIEW      FAIR      68  66  93 CALM      30.04R                  
DUKE FIELD     FAIR      70  67  88 CALM      30.03R                  
VALPARAISO     MOCLDY    78  66  65 NE6       30.01R                  
MARY ESTHER    MOCLDY    77  67  72 NE7       30.00R                  
TRI COUNTY     FAIR      69  67  93 CALM      30.04                   
PANAMA CITY    FAIR      75  69  81 CALM      30.01R                  
TYNDALL AFB    FAIR      76  72  87 NE3       30.02R                  
APALACHICOLA   FAIR      77  74  90 NE5       30.00R                  

STATION/POSITION SKY/WX   TEMP    WIND        PRES    WAVE   SWELL
                          AIR SEA DIR/SP/G            HT/PER HT/PER
                          (F)     (DEG/KT/KT) (MB)    (FT/S) (FT/S)
30.1N   87.6W              83 86   40/ 12/ 14 1015.9R   3/ 6   2/ 6
29.2N   88.2W              82      90/ 14/ 17 1015.5R   3/ 7
28.8N   86.0W                 85   80/ 12/ 14 1015.5R   2/ 4
PANAMA CITY BEAC           79 86   40/  7/  8 1016.5R
TOWER C                    83      90/ 11/ 12 1016.5R
28.5N   84.5W              83      60/  8/ 10 1016.2R   2/ 5   2/ 5

$$
FLZ011-016>038-118-127-128-134-139-239-161200-
NORTH FLORIDA
  
CITY           SKY/WX    TMP DP  RH WIND       PRES   REMARKS
MARIANNA       FAIR      72  69  90 CALM      30.02R                  
TALLAHASSEE    FAIR      73  71  93 CALM      30.02R                  
PERRY          FAIR      72  71  97 CALM      30.01S                  
LIVE OAK       CLEAR     72  72 100 CALM      30.00R                  
CROSS CITY     FAIR      72  71  99 CALM      30.00R                  
LAKE CITY      FAIR      72  70  94 N7        30.00S                  
GAINESVILLE    FAIR      74  72  93 N5        30.00S                  
WILLISTON      FAIR      73  72  99 N3        29.98S                  
PALATKA        CLOUDY    73  73 100 N7        29.97R                  
MAYPORT NAS    MOCLDY    78  75  90 N8        29.95S                  
JACKSONVILLE   FAIR      75  72  90 N7        29.97R                  
JAX NAS        MOCLDY    78  73  84 N13       29.97R                  
JAX CECIL      CLEAR     75  73  94 NW5       29.97R                  
FERNANDINA BEA CLOUDY    76  75  96 N9        29.96S                  
ST AUGUSTINE   CLOUDY   N/A N/A N/A NW9       29.96R                  
PALM COAST     MOCLDY    77  75  94 NW6       29.94R                  

STATION/POSITION SKY/WX   TEMP    WIND        PRES    WAVE   SWELL
                          AIR SEA DIR/SP/G            HT/PER HT/PER
                          (F)     (DEG/KT/KT) (MB)    (FT/S) (FT/S)
SHELL POINT      NOT AVBL
KEATON BEACH               73      10/  3/  4 1016.3R
CEDAR KEY                  76      10/  7/  9 1015.2R
FERNANDINA                 81 83  330/  5/  8 1015.4
30.7N   81.3W                 83                N/A     6/ 8   2/11
MAYPORT                    78 83  340/  9/ 11 1014.7R
31.4N   80.9W              80 83   20/ 17/ 23 1014.1R   6/ 9   3/ 9
ST AUGUSTINE               82 83  360/ 22/ 24 1013.8R

$$
FLZ040-043>046-052-053-057-058-063-144-161200-
INTERIOR CENTRAL FLORIDA
  
CITY           SKY/WX    TMP DP  RH WIND       PRES   REMARKS
OCALA          FAIR      75  74  96 N5        29.98R                  
LEESBURG       FAIR      77  74  90 NW6       29.97R                  
SANFORD        MOCLDY    77  75  93 NW9       29.93R                  
ORLANDO EXEC   FAIR      78  75  90 NW8       29.95R                  
ORLANDO INTL   FAIR      77  74  90 NW8       29.95R                  
KISSIMMEE      CLOUDY    76  75  97 W6        29.97R                  
WINTER HAVEN   FAIR      77  74  90 NW6       29.98R                  
LAKELAND       PTCLDY    75  73  94 N5        29.98R                  
BARTOW         FAIR      75  75 100 NW5       29.97R                  
SEBRING        FAIR      75  74  97 NW6       29.96R                  
OKEECHOBEE       N/A     73  72  94 NW5       29.94R                  

$$
FLZ041-047-054-059-064-141-147-161200-
EAST CENTRAL FLORIDA
  
CITY           SKY/WX    TMP DP  RH WIND       PRES   REMARKS
ORMOND BEACH   PTCLDY    75  75 100 NW5       29.93                   
DAYTONA BEACH  MOCLDY    78  76  93 NW8       29.93R                  
DELAND         FAIR      75  75 100 NW8       29.94R                  
NEW SMYRNA BEA MOCLDY    77  75  94 N9        29.93                   
JFK SPACE CTR  CLEAR     77  76  98 NW6       29.91R                  
TITUSVILLE     PTCLDY   N/A N/A N/A NW7       29.92                   
CAPE CANAVERAL FAIR      78  78 100 NW8       29.90R                  
PATRICK AFB    FAIR      79  79 100 NW13      29.91R                  
MELBOURNE      FAIR      78  75  90 W8        29.92R                  
VERO BEACH     FAIR      77  75  93 W8        29.93R                  
FT PIERCE      FAIR      76  73  91 W7        29.92S                  
STUART         PTCLDY    77  73  88 W8        29.94R                  

STATION/POSITION SKY/WX   TEMP    WIND        PRES    WAVE   SWELL
                          AIR SEA DIR/SP/G            HT/PER HT/PER
                          (F)     (DEG/KT/KT) (MB)    (FT/S) (FT/S)
28.5N   80.2W              83 84  320/ 16/ 19 1012.6R   9/ 9   5/ 9
28.9N   78.5W              82 81  310/ 25/ 31 1008.5R
TRIDENT PIER               78 84  310/  8/ 10 1014.0S
28.4N   80.5W                 83                N/A     4/10   2/11
27.5N   80.2W                 83                N/A     5/10   3/11

$$
FLZ050-056-061-142-242-148-248-149-249-151-251-155-255-
160-260-161200-
WEST CENTRAL FLORIDA
  
CITY           SKY/WX    TMP DP  RH WIND       PRES   REMARKS
CRYSTAL RIVER  FAIR      73  72  94 CALM      29.99R                  
INVERNESS      FAIR      75  75 100 CALM      29.99R                  
BROOKSVILLE    FAIR      74  73  97 N3        29.99R                  
CLEARWATER AIR FAIR      75  73  94 CALM      29.98R                  
ST PETE CLEARW FAIR      79  74  84 N7        29.98R                  
TAMPA INTL     FAIR      77  74  90 N3        29.98R                  
TAMPA EXEC     FAIR      73  73 100 CALM      29.98R                  
PLANT CITY     FAIR      75  75 100 CALM      30.00R                  
MACDILL AFB    FAIR      76  73  91 CALM      29.98R                  
PETER O KNIGHT FAIR     N/A N/A N/A CALM      29.98R                  
ST PETERSBURG  FAIR      79  75  87 N6        29.96R                  
SARASOTA       FAIR      79  75  87 CALM      29.96R                  
VENICE         FAIR      79  75  89 N6        29.98R                  

STATION/POSITION SKY/WX   TEMP    WIND        PRES    WAVE   SWELL
                          AIR SEA DIR/SP/G            HT/PER HT/PER
                          (F)     (DEG/KT/KT) (MB)    (FT/S) (FT/S)
27.3N   84.2W                 84                N/A     2/ 5
CLEARWATER BEACH           79 86   10/  7/  9 1015.1R
MIDDLE TAMPA BAY                   20/ 10/ 11 1015.0R
VENICE                     78 86   10/  6/  7 1015.0R

$$
FLZ066-069-070-075>078-162-262-165-265-161200-
SOUTHWEST FLORIDA AND KEYS
  
CITY           SKY/WX    TMP DP  RH WIND       PRES   REMARKS
PUNTA GORDA    FAIR      76  76 100 N5        29.98R                  
FT MYERS       FAIR      78  74  87 NW3       29.95R                  
SOUTHWEST INTL FAIR      78  74  87 CALM      29.96R                  
NAPLES         FAIR      81  76  84 CALM      29.96R                  
MARCO ISLAND     N/A    N/A N/A N/A N5        29.97R                  
IMMOKALEE      FAIR      75  73  94 CALM      29.94R                  
MARATHON       FAIR      84  76  76 W9        29.96R                  
KEY WEST NAS   FAIR      84  76  76 W6        29.97R                  
KEY WEST INTL  FAIR      84  76  76 W6        29.97R                  

STATION/POSITION SKY/WX   TEMP    WIND        PRES    WAVE   SWELL
                          AIR SEA DIR/SP/G            HT/PER HT/PER
                          (F)     (DEG/KT/KT) (MB)    (FT/S) (FT/S)
NAPLES                     81 86   20/  5/  6 1014.3R
26.0N   85.6W              84 86  180/  2/  4 1015.1R   3/ 7   2/ 7
DRY TORTUGAS               82     260/  3/  5 1015.1R
SOMBRERO KEY               84     280/  9/ 12 1015.1
LONG KEY                   83                 1013.7

$$
FLZ067-068-071>074-168-172>174-161200-
SOUTHEAST FLORIDA 
  
CITY           SKY/WX    TMP DP  RH WIND       PRES   REMARKS
W PALM BEACH   FAIR      77  75  93 W7        29.94R                  
BOCA RATON     CLEAR     77  75  94 W5        29.94                   
FT LAUDER-EXEC FAIR      78  75  90 W5        29.94R                  
FT LAUDERDALE  FAIR      78  75  90 W5        29.94R                  
POMPANO BEACH  FAIR      78  75  90 W7        29.94R                  
PEMBROKE PINES FAIR      79  74  84 W5        29.96R                  
OPA LOCKA      FAIR      78  75  90 W7        29.95R                  
MIAMI          FAIR      80  75  84 W6        29.95R                  
WEST KENDALL   FAIR      77  76  96 W3        29.95R                  
HOMESTEAD      FAIR      78  76  92 W5        29.94R                  

STATION/POSITION SKY/WX   TEMP    WIND        PRES    WAVE   SWELL
                          AIR SEA DIR/SP/G            HT/PER HT/PER
                          (F)     (DEG/KT/KT) (MB)    (FT/S) (FT/S)
VIRGINIA KEY               81 87  280/  2/  7 1013.5R
LAKE WORTH                        280/  5/  8 1014.7R
FOWEY ROCKS                81 85  310/ 11/ 11 1014